| time (UTC) | temp C | wind direction | speed KPH | gust KPH | rain 1hr cm | rain 24hr cm | rain mn cm | humidity % | barometer mb |
| 20260506084333 | 24 | 90 | 0.0 | 1.6 | 0.00 | 0.00 | 0.00 | 91 | 1008.5 |
| 20260506083334 | 24 | 90 | 0.0 | 0.0 | 0.00 | 0.00 | 0.00 | 92 | 1008.6 |
| 20260506082332 | 24 | 90 | 0.0 | 0.0 | 0.00 | 0.00 | 0.00 | 91 | 1008.7 |
| 20260506081333 | 24 | 90 | 0.0 | 0.0 | 0.00 | 0.00 | 0.00 | 91 | 1008.7 |
| 20260506080331 | 24 | 90 | 0.0 | 1.6 | 0.00 | 0.00 | 0.00 | 91 | 1009.0 |
| 20260506073322 | 24 | 90 | 0.0 | 0.0 | 0.00 | 0.00 | 0.00 | 90 | 1009.3 |
| 20260506072321 | 24 | 90 | 0.0 | 0.0 | 0.00 | 0.00 | 0.00 | 90 | 1009.4 |
| 20260506071338 | 24 | 90 | 0.0 | 0.0 | 0.00 | 0.00 | 0.00 | 90 | 1009.6 |
| 20260506070336 | 24 | 90 | 0.0 | 0.0 | 0.00 | 0.00 | 0.00 | 90 | 1009.6 |
| 20260506062329 | 24 | 109 | 0.0 | 3.2 | 0.00 | 0.00 | 0.00 | 90 | 1009.6 |
| 20260506061330 | 24 | 102 | 0.0 | 0.0 | 0.00 | 0.00 | 0.00 | 90 | 1009.7 |
| 20260506060333 | 24 | 105 | 0.0 | 0.0 | 0.00 | 0.00 | 0.00 | 90 | 1009.6 |
| 20260506051320 | 25 | 271 | 0.0 | 0.0 | 0.00 | 0.00 | 0.00 | 89 | 1009.7 |
| 20260506050319 | 25 | 319 | 0.0 | 3.2 | 0.00 | 0.00 | 0.00 | 89 | 1009.7 |
| 20260506044321 | 25 | 130 | 0.0 | 3.2 | 0.00 | 0.00 | 0.00 | 89 | 1009.6 |
| 20260506043322 | 25 | 333 | 0.0 | 3.2 | 0.00 | 0.00 | 0.00 | 89 | 1009.7 |
| 20260506042319 | 25 | 64 | 0.0 | 4.8 | 0.00 | 0.00 | 0.00 | 88 | 1009.6 |
| 20260506041322 | 25 | 204 | 0.0 | 3.2 | 0.00 | 0.00 | 0.00 | 88 | 1009.5 |
| 20260506040323 | 25 | 307 | 0.0 | 1.6 | 0.00 | 0.00 | 0.00 | 88 | 1009.5 |
| 20260506035332 | 25 | 265 | 0.0 | 1.6 | 0.00 | 0.00 | 0.00 | 87 | 1009.4 |
| 20260506034331 | 25 | 9 | 0.0 | 3.2 | 0.00 | 0.00 | 0.00 | 87 | 1009.3 |
| 20260506033354 | 25 | 74 | 0.0 | 0.0 | 0.00 | 0.00 | 0.00 | 87 | 1009.3 |
| 20260506032333 | 25 | 325 | 0.0 | 3.2 | 0.00 | 0.00 | 0.00 | 87 | 1009.2 |
| 20260506031334 | 25 | 92 | 0.0 | 3.2 | 0.00 | 0.00 | 0.00 | 87 | 1009.1 |
| 20260506030317 | 25 | 95 | 0.0 | 0.0 | 0.00 | 0.00 | 0.00 | 87 | 1009.1 |
| 20260506025330 | 25 | 95 | 0.0 | 1.6 | 0.00 | 0.00 | 0.00 | 86 | 1008.9 |
| 20260506024351 | 25 | 86 | 0.0 | 1.6 | 0.00 | 0.00 | 0.00 | 86 | 1008.6 |
| 20260506023331 | 25 | 335 | 0.0 | 3.2 | 0.00 | 0.00 | 0.00 | 86 | 1008.5 |
| 20260506022335 | 25 | 91 | 0.0 | 1.6 | 0.00 | 0.00 | 0.00 | 85 | 1008.4 |
| 20260506021355 | 25 | 91 | 0.0 | 4.8 | 0.00 | 0.00 | 0.00 | 85 | 1008.3 |
| 20260506020332 | 25 | 83 | 0.0 | 3.2 | 0.00 | 0.00 | 0.00 | 85 | 1008.1 |
| 20260506015345 | 25 | 77 | 0.0 | 0.0 | 0.00 | 0.00 | 0.00 | 84 | 1008.0 |
| 20260506014326 | 26 | 77 | 0.0 | 3.2 | 0.00 | 0.00 | 0.00 | 84 | 1007.9 |
| 20260506013325 | 26 | 39 | 0.0 | 4.8 | 0.00 | 0.00 | 0.00 | 84 | 1007.8 |
| 20260506012328 | 26 | 5 | 0.0 | 1.6 | 0.00 | 0.00 | 0.00 | 84 | 1007.7 |
| 20260506011328 | 26 | 176 | 0.0 | 1.6 | 0.00 | 0.00 | 0.00 | 84 | 1007.5 |
| 20260506010330 | 26 | 26 | 0.0 | 3.2 | 0.00 | 0.00 | 0.00 | 83 | 1007.3 |
| 20260506005321 | 26 | 67 | 0.0 | 0.0 | 0.00 | 0.00 | 0.00 | 83 | 1007.4 |
| 20260506004323 | 26 | 67 | 0.0 | 1.6 | 0.00 | 0.00 | 0.00 | 83 | 1007.3 |
| 20260506003327 | 26 | 149 | 0.0 | 3.2 | 0.00 | 0.00 | 0.00 | 83 | 1007.3 |
| 20260506002326 | 26 | 61 | 0.0 | 1.6 | 0.00 | 0.00 | 0.00 | 82 | 1007.3 |
| 20260506001326 | 27 | 61 | 0.0 | 1.6 | 0.00 | 0.00 | 0.00 | 81 | 1007.1 |
| 20260506000323 | 27 | 61 | 0.0 | 4.8 | 0.00 | 0.00 | 0.00 | 80 | 1007.0 |
| 20260505235333 | 27 | 39 | 0.0 | 3.2 | 0.00 | 0.00 | 0.00 | 79 | 1007.2 |
| 20260505234354 | 27 | 109 | 0.0 | 1.6 | 0.00 | 0.00 | 0.00 | 79 | 1007.1 |
| 20260505233329 | 27 | 101 | 0.0 | 3.2 | 0.00 | 0.00 | 0.00 | 79 | 1007.1 |
| 20260505232332 | 27 | 62 | 0.0 | 3.2 | 0.00 | 0.00 | 0.00 | 78 | 1007.1 |
| 20260505231353 | 27 | 118 | 0.0 | 3.2 | 0.00 | 0.00 | 0.00 | 79 | 1007.2 |
| 20260505230334 | 27 | 126 | 0.0 | 1.6 | 0.00 | 0.00 | 0.00 | 79 | 1006.9 |
| 20260505225326 | 27 | 118 | 0.0 | 4.8 | 0.00 | 0.00 | 0.00 | 78 | 1007.0 |
| 20260505224329 | 27 | 111 | 1.6 | 12.9 | 0.00 | 0.00 | 0.00 | 78 | 1006.8 |
| 20260505223344 | 27 | 117 | 1.6 | 8.0 | 0.00 | 0.00 | 0.00 | 78 | 1006.9 |
| 20260505222324 | 28 | 284 | 0.0 | 3.2 | 0.00 | 0.00 | 0.00 | 78 | 1007.0 |
| 20260505221326 | 28 | 317 | 0.0 | 3.2 | 0.00 | 0.00 | 0.00 | 78 | 1006.8 |
| 20260505220327 | 28 | 96 | 0.0 | 4.8 | 0.00 | 0.00 | 0.00 | 78 | 1007.0 |
| 20260505215321 | 28 | 38 | 0.0 | 1.6 | 0.00 | 0.00 | 0.00 | 79 | 1007.2 |
| 20260505214324 | 28 | 30 | 1.6 | 6.4 | 0.00 | 0.00 | 0.00 | 78 | 1007.4 |
| 20260505213321 | 28 | 340 | 0.0 | 4.8 | 0.00 | 0.00 | 0.00 | 78 | 1007.6 |
| 20260505212321 | 28 | 103 | 0.0 | 1.6 | 0.00 | 0.00 | 0.00 | 78 | 1007.6 |
| 20260505211321 | 28 | 102 | 0.0 | 3.2 | 0.00 | 0.00 | 0.00 | 77 | 1007.7 |
| 20260505210322 | 28 | 82 | 0.0 | 4.8 | 0.00 | 0.00 | 0.00 | 77 | 1007.8 |
| 20260505205345 | 28 | 63 | 0.0 | 11.3 | 0.00 | 0.00 | 0.00 | 75 | 1007.9 |
| 20260505204325 | 28 | 121 | 1.6 | 9.7 | 0.00 | 0.00 | 0.00 | 76 | 1008.1 |
| 20260505203329 | 28 | 165 | 0.0 | 3.2 | 0.00 | 0.00 | 0.00 | 77 | 1008.1 |
| 20260505202328 | 28 | 47 | 0.0 | 4.8 | 0.00 | 0.00 | 0.00 | 79 | 1008.3 |
| 20260505201347 | 27 | 42 | 0.0 | 1.6 | 0.00 | 0.00 | 0.00 | 78 | 1008.6 |
| 20260505200328 | 28 | 18 | 0.0 | 3.2 | 0.00 | 0.00 | 0.00 | 78 | 1008.6 |
| 20260505195321 | 28 | 271 | 1.6 | 4.8 | 0.00 | 0.00 | 0.00 | 77 | 1008.7 |
| 20260505194319 | 28 | 290 | 1.6 | 11.3 | 0.00 | 0.00 | 0.00 | 78 | 1008.8 |
| 20260505193339 | 28 | 279 | 1.6 | 4.8 | 0.00 | 0.00 | 0.00 | 78 | 1008.8 |
| 20260505192335 | 27 | 113 | 1.6 | 9.7 | 0.00 | 0.00 | 0.00 | 79 | 1008.8 |
| 20260505191331 | 27 | 284 | 0.0 | 3.2 | 0.00 | 0.00 | 0.00 | 80 | 1009.0 |
| 20260505190351 | 27 | 44 | 0.0 | 3.2 | 0.00 | 0.00 | 0.00 | 80 | 1009.1 |
| 20260505185321 | 26 | 165 | 1.6 | 4.8 | 0.00 | 0.00 | 0.00 | 81 | 1009.3 |
| 20260505184323 | 26 | 148 | 0.0 | 3.2 | 0.00 | 0.00 | 0.00 | 81 | 1009.4 |
| 20260505183323 | 26 | 194 | 1.6 | 11.3 | 0.00 | 0.00 | 0.00 | 82 | 1009.4 |
| 20260505182325 | 26 | 140 | 0.0 | 6.4 | 0.00 | 0.00 | 0.00 | 83 | 1009.5 |
| 20260505181327 | 26 | 138 | 0.0 | 1.6 | 0.00 | 0.00 | 0.00 | 84 | 1009.5 |
| 20260505180328 | 26 | 138 | 0.0 | 1.6 | 0.00 | 0.00 | 0.00 | 83 | 1009.5 |
| 20260505175317 | 26 | 104 | 1.6 | 4.8 | 0.00 | 0.00 | 0.00 | 83 | 1009.5 |
| 20260505174317 | 25 | 120 | 0.0 | 4.8 | 0.00 | 0.00 | 0.00 | 85 | 1009.6 |
| 20260505173321 | 25 | 109 | 0.0 | 1.6 | 0.00 | 0.00 | 0.00 | 86 | 1009.7 |
| 20260505172319 | 25 | 121 | 0.0 | 1.6 | 0.00 | 0.00 | 0.00 | 86 | 1009.8 |
| 20260505171340 | 25 | 150 | 0.0 | 0.0 | 0.00 | 0.00 | 0.00 | 86 | 1009.9 |
| 20260505170323 | 25 | 150 | 0.0 | 1.6 | 0.00 | 0.00 | 0.00 | 85 | 1010.0 |
| 20260505165333 | 25 | 152 | 0.0 | 8.0 | 0.00 | 0.00 | 0.00 | 85 | 1009.9 |
| 20260505164332 | 25 | 79 | 0.0 | 3.2 | 0.00 | 0.00 | 0.00 | 85 | 1009.9 |
| 20260505163334 | 25 | 108 | 0.0 | 1.6 | 0.00 | 0.00 | 0.00 | 86 | 1010.1 |
| 20260505162355 | 25 | 108 | 0.0 | 3.2 | 0.00 | 0.00 | 0.00 | 86 | 1010.1 |
| 20260505161357 | 25 | 109 | 0.0 | 3.2 | 0.00 | 0.00 | 0.00 | 86 | 1009.9 |
| 20260505160337 | 25 | 98 | 0.0 | 3.2 | 0.00 | 0.00 | 0.00 | 85 | 1010.0 |
| 20260505153324 | 25 | 109 | 0.0 | 4.8 | 0.00 | 0.00 | 0.00 | 86 | 1009.7 |
| 20260505152325 | 24 | 103 | 0.0 | 1.6 | 0.00 | 0.00 | 0.00 | 87 | 1009.8 |
| 20260505151329 | 24 | 82 | 0.0 | 3.2 | 0.00 | 0.00 | 0.00 | 87 | 1009.8 |
| 20260505150330 | 24 | 86 | 0.0 | 3.2 | 0.00 | 0.00 | 0.00 | 86 | 1009.8 |
| 20260505140319 | 23 | 55 | 0.0 | 8.0 | 0.00 | 0.00 | 0.00 | 88 | 1009.2 |
| 20260505124331 | 22 | 58 | 0.0 | 1.6 | 0.00 | 0.00 | 0.00 | 90 | 1008.9 |
| 20260505123330 | 22 | 57 | 0.0 | 6.4 | 0.00 | 0.00 | 0.00 | 90 | 1009.3 |
| 20260505122328 | 22 | 180 | 0.0 | 1.6 | 0.00 | 0.00 | 0.00 | 91 | 1009.2 |
| 20260505121330 | 22 | 180 | 1.6 | 3.2 | 0.00 | 0.00 | 0.00 | 91 | 1009.1 |
| 20260505120332 | 22 | 348 | 0.0 | 1.6 | 0.00 | 0.00 | 0.00 | 91 | 1008.9 |
| 20260505115322 | 22 | 76 | 0.0 | 1.6 | 0.00 | 0.00 | 0.00 | 91 | 1008.8 |
| 20260505114320 | 22 | 59 | 0.0 | 3.2 | 0.00 | 0.00 | 0.00 | 91 | 1009.0 |
| 20260505113340 | 21 | 132 | 0.0 | 3.2 | 0.00 | 0.00 | 0.00 | 91 | 1009.0 |
| 20260505112320 | 21 | 65 | 0.0 | 1.6 | 0.00 | 0.00 | 0.00 | 92 | 1008.9 |
| 20260505111323 | 21 | 65 | 0.0 | 0.0 | 0.00 | 0.00 | 0.00 | 92 | 1008.8 |
| 20260505110324 | 21 | 65 | 0.0 | 0.0 | 0.00 | 0.00 | 0.00 | 92 | 1008.7 |
| 20260505101335 | 21 | 65 | 0.0 | 0.0 | 0.00 | 0.00 | 0.00 | 92 | 1008.9 |
| 20260505100334 | 20 | 65 | 0.0 | 0.0 | 0.00 | 0.00 | 0.00 | 92 | 1009.1 |
| 20260505095346 | 20 | 65 | 0.0 | 0.0 | 0.00 | 0.00 | 0.00 | 92 | 1008.9 |
| 20260505094325 | 20 | 65 | 0.0 | 0.0 | 0.00 | 0.00 | 0.00 | 91 | 1009.0 |
| 20260505093325 | 20 | 65 | 0.0 | 0.0 | 0.00 | 0.00 | 0.00 | 91 | 1009.1 |
| 20260505092326 | 20 | 65 | 0.0 | 0.0 | 0.00 | 0.00 | 0.00 | 91 | 1009.2 |
| 20260505091325 | 20 | 65 | 0.0 | 0.0 | 0.00 | 0.00 | 0.00 | 91 | 1009.2 |
| 20260505090325 | 20 | 65 | 0.0 | 0.0 | 0.00 | 0.00 | 0.00 | 91 | 1009.3 |
| 20260505085335 | 20 | 65 | 0.0 | 0.0 | 0.00 | 0.00 | 0.00 | 90 | 1009.2 |